Location: Big Sandy Campground
(37.4666°N, 119.5821°W)
Time: 22:15:38
(UTC+00:00)

Cosmos 1939 Rocket - Pass Details

Date: 03 August 2024
Orbit: 511 x 553 km, 97.5° (Epoch: 08 September)

Event Time Altitude Azimuth Distance (km) Brightness Sun altitude
Rises 12:25:13 0° 14° (NNE) 2,633 7.0 -7.9°
Reaches altitude 10° 12:27:19 10° 17° (NNE) 1,746 6.1 -7.5°
Maximum altitude 12:31:04 70° 101° (E) 553 3.0 -6.9°
Drops below altitude 10° 12:34:49 10° 186° (S) 1,750 5.1 -6.2°
Sets 12:36:56 0° 188° (S) 2,641 6.0 -5.8°
